Regional Weather Roundup
Issued by NWS Midland/Odessa, TX

Skip options and go directly to product.
Home | Oldest Version | Previous Version | Current Version | All | Text Only | Save Text | Print | Product List | Glossary On

Skip product version selection by date and time.   
719
ASUS44 KMAF 010110
RWRMAF
MIDLAND AREA WEATHER ROUNDUP
NATIONAL WEATHER SERVICE MIDLAND TX
800 PM CDT MON AUG 31 2015

...IN SOUTHWEST TEXAS AND SOUTHEAST NEW MEXICO...

CITY           SKY/WX    TMP DP  RH WIND       PRES   REMARKS
ALPINE         CLEAR     86  30  13 NE3       30.11S
ANDREWS        FAIR      85  54  34 SE6       29.98S
ARTESIA        CLEAR     88  50  27 SE13      29.97R
BIG SPRING     CLEAR     87  53  31 SE9       29.97S
CARLSBAD       CLEAR     92  45  19 SE14      29.94S
DRYDEN           N/A     92  57  30 SE8       29.92R
FORT STOCKTON  CLEAR     90  50  25 SE13      29.95R
GUAD PASS      MOCLDY    83  46  27 E12       30.13S
HOBBS          CLEAR     84  48  28 S8        30.01S
MARFA          CLEAR     82  37  20 NE9       30.10S
MIDLAND AIRPK  CLEAR     91  51  25 SE8       29.96S
MIDLAND INTL   CLEAR     90  53  28 SE10      29.95S
ODESSA         CLEAR     89  51  27 S12       29.97S
PECOS          CLEAR     92  43  18 E6        29.91S
PRESIDIO       NOT AVBL
SEMINOLE       CLEAR     87  47  25 S6        30.00S
SNYDER         CLEAR     89  55  31 SE9       29.96S
WINK           CLEAR     91  50  24 E12       29.92S
$$
...OTHER STATIONS IN TEXAS...

CITY           SKY/WX    TMP DP  RH WIND       PRES   REMARKS
ABILENE        CLEAR     88  58  36 SE14      29.94F
AMARILLO       CLEAR     83  49  30 S13       29.99S
AUSTIN         MOCLDY    83  70  64 SE14      29.95R
BROWNSVILLE    LGT RAIN  76  74  93 SE13      29.88F
CORPUS CHRISTI CLOUDY    82  74  76 SE9       29.93F
DALLAS FTW     PTCLDY    89  63  41 SE12      29.94R
DEL RIO        CLEAR     93  57  29 E9        29.87R
EL PASO        PTCLDY    93  41  16 S9        29.97S
HOUSTON INT    MOCLDY    78  70  76 SE8       29.97F
LUBBOCK        CLEAR     86  51  29 S9        29.99S
SAN ANGELO     CLEAR     90  55  30 SE8       29.93R
SAN ANTONIO    PTCLDY    87  67  51 SE17      29.95R
WACO           LGT RAIN  88  67  49 S17G24    29.93S
WICHITA FALLS  NOT AVBL
$$
...OTHER LOCATIONS IN NEW MEXICO...

CITY           SKY/WX    TMP DP  RH WIND       PRES   REMARKS
ALAMAGORDO     PTCLDY    91  46  21 N6        29.99S
ALBUQUERQUE    CLOUDY    82  46  28 NW16      30.11R
CANNON AFB     CLEAR     85  50  29 S15       30.01R
CLOVIS         CLEAR     84  48  28 S12       30.03R
HOLLOMAN AFB   PTCLDY    92  47  21 NW7       29.97R
ROSWELL        PTCLDY    91  48  22 S20       29.96R
RUIDOSO        MOCLDY    72  48  43 MISG      30.24R
SANTA FE       MOCLDY    81  42  25 SW18G25   30.15R
TRUTH OR CONSE MOCLDY    81  50  33 NW12      30.06S
TUCUMCARI      PTCLDY    91  48  22 S10       29.94R
$$

USA.gov is the U.S. government's official web portal to all federal, state and local government web resources and services.